Regional Weather Roundup
Issued by NWS

Home | Current Version | Previous Version | Text Only | Print | Product List | Glossary Off
Versions: 1 2 3 4 5 6 7 8 9 10 11 12 13 14 15 16 17 18 19 20 21 22 23 24 25 26 27 28 29 30 31 32 33 34 35 36 37 38 39 40 41 42 43 44 45 46 47 48 49 50

000
ASUS43 KLOT 272003
RWRIL

ILLINOIS REGIONAL WEATHER ROUNDUP
NATIONAL WEATHER SERVICE CHICAGO/ROMEOVILLE IL
300 PM CDT TUE SEP 27 2016

NOTE: "FAIR" INDICATES FEW OR NO CLOUDS BELOW 12,000 FEET WITH NO
SIGNIFICANT WEATHER AND/OR OBSTRUCTIONS TO VISIBILITY.

* THESE STATIONS ARE NOT UNDER NWS QUALITY CONTROL. THEY ALSO MAY NOT
  REPORT WEATHER SUCH AS PRECIPITATION OR FOG.

ILZ001-002-007-009-015-016-024-272100-
NORTHWEST ILLINOIS

CITY           SKY/WX    TMP DP  RH WIND       PRES   REMARKS
MOLINE         SUNNY     74  33  22 W21G29    29.79F
STERLING*      SUNNY     70  37  29 W24       29.77F
$$

ILZ003-004-008-010-011-017-018-272100-
NORTH CENTRAL ILLINOIS

CITY           SKY/WX    TMP DP  RH WIND       PRES   REMARKS
ROCKFORD       MOSUNNY   68  36  30 W16G30    29.77F
FREEPORT*      MOSUNNY   66  34  31 W16G29    29.78S
ROCHELLE*      SUNNY     68  37  32 W21G31    29.78F
$$

ILZ005-006-012>014-019>023-272100-
NORTHEAST ILLINOIS

CITY           SKY/WX    TMP DP  RH WIND       PRES   REMARKS
CHICAGO-OHARE  PTSUNNY   68  34  28 W20G30    29.74F
CHICAGO-MIDWAY PTSUNNY   71  31  22 W17G26    29.75S
AURORA         CLOUDY    70  34  26 W23G31    29.76F
LANSING*       SUNNY     72  38  28 W21G28    29.76S
WAUKEGAN       PTSUNNY   66  41  40 W8G21     29.72R
DUPAGE AIRPORT MOSUNNY   68  34  28 W18G28    29.75F
KANKAKEE*      SUNNY     73  27  18 W18G28    29.78F
WHEELING       SUNNY     69  34  27 W15G23    29.74F
NORTHERLY ISL    N/A     68  30  24 W12         N/A
$$

LMZ740>746-272100-
SOUTHERN LAKE MICHIGAN

STATION/POSITION SKY/WX   TEMP    WIND        PRES    VSBY  WAVE
                          AIR SEA DIR/SP/G                  HT/PER
                          (F)     (DEG/KT/KT) (MB)    (MI)  (FT/S)
SOUTHERN BUOY              61 70  280/ 17/ 23 1005.8          4/ 5
WILMETTE HARBOR            65 60  290/ 16/ 21   N/A           3/ 3
HARRISON CRIB              67     270/ 26/ 28   N/A
BURNHAM HARBOR             69     300/  9/ 21   N/A
CALUMET HARBOR             71     250/  7/ 23 1007.2S
BURNS HARBOR               67     260/ 21/ 24 1007.8F
MICHIGAN CITY              66     230/ 23/ 25   N/A
MICHIGAN CITY 6N           67 67  270/ 17/ 23   N/A           5/ 5
ST. JOSEPH                 66 66  260/ 19/ 27 1007.2F         7/ 6
$$

ILZ025>027-034>036-040-047-049-050-058-095>099-272100-
WEST-CENTRAL ILLINOIS

CITY           SKY/WX    TMP DP  RH WIND       PRES   REMARKS
QUINCY         SUNNY     77  42  28 W17G26    29.86F
GALESBURG*     SUNNY     73  35  25 W16       29.82F
MACOMB*        SUNNY     76  32  20 W15G25    29.85F
$$

ILZ028>032-037-038-041>044-048-051>054-059>061-272100-
CENTRAL ILLINOIS

CITY           SKY/WX    TMP DP  RH WIND       PRES   REMARKS
BLOOMINGTON    SUNNY     73  35  25 W17       29.83F
DECATUR        SUNNY     78  38  23 W15       29.84F
PEORIA         SUNNY     74  31  20 W18       29.82F
LINCOLN*       SUNNY     76  41  28 W8G21     29.84F
SPRINGFIELD    SUNNY     79  38  22 W12G22    29.85F
TAYLORVILLE    NOT AVBL
$$

ILZ033-039-045-046-055>057-062-063-272100-
EAST-CENTRAL ILLINOIS

CITY           SKY/WX    TMP DP  RH WIND       PRES   REMARKS
CHAMPAIGN      SUNNY     77  34  21 W17G28    29.83F
MATTOON        LGT RAIN  77  40  26 W12G21    29.84F
$$

ILZ079-100>102-272100-
SOUTHWEST ILLINOIS

CITY           SKY/WX    TMP DP  RH WIND       PRES   REMARKS
BELLEVILLE     SUNNY     79  47  32 W16       29.89F
CAHOKIA*       SUNNY     79  44  28 SW8       29.90F
SPARTA*        SUNNY     77  51  39 W10       29.93F
$$

ILZ064>066-069>071-074>076-080>082-084>086-088>090-092>094-272100-
SOUTH-CENTRAL ILLINOIS

CITY           SKY/WX    TMP DP  RH WIND       PRES   REMARKS
CARBONDALE     SUNNY     77  49  37 W12G20    29.93F
MARION         MOSUNNY   77  48  36 W12       29.94F
MT. VERNON     SUNNY     77  46  33 SW13      29.92S
CENTRALIA*     SUNNY     78  49  36 W13       29.90F
SALEM*         SUNNY     78  44  29 W13G20    29.89F
METROPOLIS*    SUNNY     79  45  30 CALM      29.96F
$$

ILZ067-068-072-073-078-083-087-091-272100-
SOUTHEAST ILLINOIS

CITY           SKY/WX    TMP DP  RH WIND       PRES   REMARKS
LAWRENCEVILLE  SUNNY     79  47  32 W18G26    29.88F
FLORA*         SUNNY     79  46  31 W14       29.89F
HARRISBURG*    SUNNY     78  51  38 W16       29.93F
ROBINSON*      SUNNY     77  45  32 W15G21    29.87F
$$

ABBREVIATIONS USED IN REMARKS
   TC - TEMPERATURE IN CELSIUS
  WCI - WIND CHILL INDEX
   HX - HEAT INDEX
  VSB - VISIBILITY
$$





USA.gov is the U.S. government's official web portal to all federal, state and local government web resources and services.